| time (UTC) | temp F | wind direction | speed knots | gust knots | rain 1hr in | rain 24hr in | rain mn in | humidity % | barometer mb |
| 20260507101501 | 29 | 288 | 0.0 | 0.0 | 0.00 | 0.00 | 0.00 | 93 | 1016.3 |
| 20260507100059 | 29 | 284 | 0.0 | 0.0 | 0.00 | 0.00 | 0.00 | 93 | 1016.2 |
| 20260507094558 | 29 | 287 | 0.0 | 0.0 | 0.00 | 0.00 | 0.00 | 92 | 1016.3 |
| 20260507093058 | 30 | 287 | 0.0 | 0.0 | 0.00 | 0.00 | 0.00 | 91 | 1016.3 |
| 20260507091554 | 31 | 283 | 0.0 | 0.0 | 0.00 | 0.00 | 0.00 | 91 | 1016.4 |
| 20260507090053 | 31 | 286 | 0.0 | 0.0 | 0.00 | 0.00 | 0.00 | 91 | 1016.4 |
| 20260507084552 | 31 | 285 | 0.0 | 0.0 | 0.00 | 0.00 | 0.00 | 90 | 1016.3 |
| 20260507083051 | 30 | 285 | 0.0 | 0.0 | 0.00 | 0.00 | 0.00 | 89 | 1016.3 |
| 20260507081549 | 31 | 285 | 0.0 | 0.0 | 0.00 | 0.00 | 0.00 | 88 | 1016.3 |
| 20260507080046 | 32 | 279 | 0.0 | 0.0 | 0.00 | 0.00 | 0.00 | 87 | 1016.3 |
| 20260507074546 | 33 | 278 | 0.0 | 0.0 | 0.00 | 0.00 | 0.00 | 87 | 1016.3 |
| 20260507073044 | 32 | 281 | 0.0 | 0.0 | 0.00 | 0.00 | 0.00 | 87 | 1016.3 |
| 20260507071601 | 32 | 278 | 0.0 | 0.0 | 0.00 | 0.00 | 0.00 | 87 | 1016.4 |
| 20260507070038 | 33 | 278 | 0.0 | 0.0 | 0.00 | 0.00 | 0.00 | 86 | 1016.6 |
| 20260507064537 | 33 | 270 | 0.0 | 0.0 | 0.00 | 0.00 | 0.00 | 85 | 1016.6 |
| 20260507063043 | 33 | 271 | 0.0 | 0.0 | 0.00 | 0.00 | 0.00 | 85 | 1016.6 |
| 20260507061535 | 33 | 272 | 0.0 | 0.0 | 0.00 | 0.00 | 0.00 | 85 | 1016.7 |
| 20260507060036 | 34 | 272 | 0.0 | 0.0 | 0.00 | 0.00 | 0.00 | 83 | 1016.8 |
| 20260507054530 | 34 | 265 | 0.0 | 0.0 | 0.00 | 0.00 | 0.00 | 81 | 1016.7 |
| 20260507053035 | 35 | 264 | 0.0 | 0.0 | 0.00 | 0.00 | 0.00 | 79 | 1016.6 |
| 20260507051531 | 36 | 263 | 0.0 | 0.0 | 0.00 | 0.00 | 0.00 | 77 | 1016.7 |
| 20260507050027 | 36 | 264 | 0.0 | 0.0 | 0.00 | 0.00 | 0.00 | 75 | 1016.6 |
| 20260507044522 | 36 | 264 | 0.0 | 0.0 | 0.00 | 0.00 | 0.00 | 75 | 1016.6 |
| 20260507043023 | 37 | 264 | 0.0 | 0.0 | 0.00 | 0.00 | 0.00 | 72 | 1016.6 |
| 20260507041520 | 37 | 262 | 0.0 | 0.0 | 0.00 | 0.00 | 0.00 | 70 | 1016.5 |
| 20260507040022 | 38 | 262 | 0.0 | 0.0 | 0.00 | 0.00 | 0.00 | 68 | 1016.6 |
| 20260507034531 | 38 | 262 | 0.0 | 0.0 | 0.00 | 0.00 | 0.00 | 66 | 1016.5 |
| 20260507033032 | 39 | 262 | 0.0 | 0.0 | 0.00 | 0.00 | 0.00 | 64 | 1016.6 |
| 20260507031518 | 40 | 262 | 0.0 | 0.9 | 0.00 | 0.00 | 0.00 | 62 | 1016.6 |
| 20260507030015 | 41 | 264 | 0.0 | 0.9 | 0.00 | 0.00 | 0.00 | 59 | 1016.5 |
| 20260507024515 | 42 | 262 | 0.0 | 0.9 | 0.00 | 0.00 | 0.00 | 58 | 1016.4 |
| 20260507023023 | 43 | 323 | 0.0 | 2.6 | 0.00 | 0.00 | 0.00 | 57 | 1016.3 |
| 20260507021511 | 43 | 342 | 0.0 | 0.9 | 0.00 | 0.00 | 0.00 | 56 | 1016.1 |
| 20260507020017 | 43 | 28 | 0.0 | 0.0 | 0.00 | 0.00 | 0.00 | 54 | 1015.9 |
| 20260507014511 | 45 | 25 | 0.0 | 1.7 | 0.00 | 0.00 | 0.00 | 51 | 1015.7 |
| 20260507013007 | 46 | 112 | 0.0 | 0.9 | 0.00 | 0.00 | 0.00 | 49 | 1015.7 |
| 20260507011507 | 47 | 304 | 0.0 | 3.5 | 0.00 | 0.00 | 0.00 | 47 | 1015.7 |
| 20260507010004 | 48 | 316 | 0.9 | 5.2 | 0.00 | 0.00 | 0.00 | 45 | 1015.5 |
| 20260507004503 | 48 | 317 | 0.0 | 5.2 | 0.00 | 0.00 | 0.00 | 46 | 1015.5 |
| 20260507003003 | 49 | 352 | 0.0 | 6.1 | 0.00 | 0.00 | 0.00 | 44 | 1015.5 |
| 20260507001604 | 50 | 349 | 0.9 | 4.3 | 0.00 | 0.00 | 0.00 | 44 | 1015.4 |
| 20260507000059 | 50 | 56 | 0.9 | 7.0 | 0.00 | 0.00 | 0.00 | 43 | 1015.0 |
| 20260506234557 | 51 | 162 | 0.9 | 6.1 | 0.00 | 0.00 | 0.00 | 43 | 1014.9 |
| 20260506233059 | 52 | 319 | 1.7 | 6.1 | 0.00 | 0.00 | 0.00 | 41 | 1014.8 |
| 20260506231601 | 52 | 150 | 1.7 | 7.8 | 0.00 | 0.00 | 0.00 | 42 | 1014.7 |
| 20260506230055 | 53 | 13 | 0.9 | 7.0 | 0.00 | 0.00 | 0.00 | 42 | 1014.6 |
| 20260506224555 | 53 | 340 | 1.7 | 7.0 | 0.00 | 0.00 | 0.00 | 40 | 1014.4 |
| 20260506223054 | 53 | 338 | 0.9 | 7.0 | 0.00 | 0.00 | 0.00 | 41 | 1014.4 |
| 20260506221553 | 54 | 287 | 1.7 | 7.8 | 0.00 | 0.00 | 0.00 | 40 | 1014.3 |
| 20260506220053 | 55 | 204 | 1.7 | 7.8 | 0.00 | 0.00 | 0.00 | 38 | 1014.2 |
| 20260506214602 | 56 | 135 | 0.9 | 6.1 | 0.00 | 0.00 | 0.00 | 40 | 1014.0 |
| 20260506213051 | 56 | 229 | 1.7 | 8.7 | 0.00 | 0.00 | 0.00 | 39 | 1014.1 |
| 20260506211553 | 57 | 219 | 1.7 | 11.3 | 0.00 | 0.00 | 0.00 | 39 | 1013.9 |
| 20260506210050 | 57 | 350 | 2.6 | 10.4 | 0.00 | 0.00 | 0.00 | 36 | 1013.9 |
| 20260506204552 | 56 | 237 | 1.7 | 6.1 | 0.00 | 0.00 | 0.00 | 39 | 1013.9 |
| 20260506203048 | 55 | 290 | 0.9 | 7.8 | 0.00 | 0.00 | 0.00 | 40 | 1014.1 |
| 20260506201548 | 56 | 184 | 2.6 | 8.7 | 0.00 | 0.00 | 0.00 | 35 | 1014.0 |
| 20260506200052 | 57 | 275 | 2.6 | 11.3 | 0.00 | 0.00 | 0.00 | 33 | 1014.2 |
| 20260506194548 | 57 | 178 | 2.6 | 12.2 | 0.00 | 0.00 | 0.00 | 34 | 1014.3 |
| 20260506193144 | 57 | 147 | 2.6 | 9.6 | 0.00 | 0.00 | 0.00 | 34 | 1014.3 |
| 20260506191550 | 56 | 53 | 2.6 | 7.8 | 0.00 | 0.00 | 0.00 | 36 | 1014.5 |
| 20260506190043 | 55 | 167 | 3.5 | 7.0 | 0.00 | 0.00 | 0.00 | 36 | 1014.4 |
| 20260506184541 | 55 | 354 | 1.7 | 7.0 | 0.00 | 0.00 | 0.00 | 38 | 1014.5 |
| 20260506183043 | 55 | 15 | 0.9 | 5.2 | 0.00 | 0.00 | 0.00 | 36 | 1014.4 |
| 20260506181549 | 56 | 162 | 0.9 | 12.2 | 0.00 | 0.00 | 0.00 | 37 | 1014.5 |
| 20260506180046 | 55 | 140 | 0.9 | 7.8 | 0.00 | 0.00 | 0.00 | 38 | 1014.4 |
| 20260506174537 | 54 | 245 | 1.7 | 7.0 | 0.00 | 0.00 | 0.00 | 39 | 1014.5 |
| 20260506173041 | 54 | 174 | 1.7 | 7.8 | 0.00 | 0.00 | 0.00 | 39 | 1014.7 |
| 20260506171535 | 55 | 359 | 1.7 | 5.2 | 0.00 | 0.00 | 0.00 | 41 | 1014.7 |
| 20260506170035 | 54 | 161 | 0.9 | 6.1 | 0.00 | 0.00 | 0.00 | 39 | 1014.8 |
| 20260506164534 | 55 | 187 | 3.5 | 9.6 | 0.00 | 0.00 | 0.00 | 38 | 1014.8 |
| 20260506163037 | 54 | 356 | 0.9 | 4.3 | 0.00 | 0.00 | 0.00 | 40 | 1014.7 |
| 20260506161535 | 54 | 337 | 1.7 | 11.3 | 0.00 | 0.00 | 0.00 | 39 | 1014.8 |
| 20260506160031 | 54 | 264 | 0.9 | 6.1 | 0.00 | 0.00 | 0.00 | 40 | 1014.7 |
| 20260506154529 | 53 | 115 | 0.9 | 6.1 | 0.00 | 0.00 | 0.00 | 41 | 1014.8 |
| 20260506153026 | 53 | 142 | 1.7 | 6.1 | 0.00 | 0.00 | 0.00 | 42 | 1014.7 |
| 20260506151524 | 52 | 236 | 0.9 | 7.8 | 0.00 | 0.00 | 0.00 | 42 | 1014.9 |
| 20260506150024 | 52 | 113 | 1.7 | 7.0 | 0.00 | 0.00 | 0.00 | 42 | 1014.9 |
| 20260506144624 | 52 | 281 | 0.0 | 3.5 | 0.00 | 0.00 | 0.00 | 42 | 1014.9 |
| 20260506143025 | 51 | 301 | 0.9 | 4.3 | 0.00 | 0.00 | 0.00 | 44 | 1015.0 |
| 20260506141517 | 50 | 162 | 2.6 | 5.2 | 0.00 | 0.00 | 0.00 | 46 | 1014.9 |
| 20260506140013 | 50 | 168 | 1.7 | 4.3 | 0.00 | 0.00 | 0.00 | 48 | 1014.9 |
| 20260506134511 | 48 | 166 | 0.0 | 2.6 | 0.00 | 0.00 | 0.00 | 53 | 1014.7 |
| 20260506133010 | 48 | 107 | 0.0 | 1.7 | 0.00 | 0.00 | 0.00 | 57 | 1014.4 |
| 20260506131508 | 46 | 165 | 0.0 | 0.9 | 0.00 | 0.00 | 0.00 | 59 | 1014.2 |
| 20260506130006 | 45 | 64 | 0.0 | 0.9 | 0.00 | 0.00 | 0.00 | 65 | 1014.3 |
| 20260506124503 | 43 | 10 | 0.0 | 0.9 | 0.00 | 0.03 | 0.00 | 74 | 1014.1 |
| 20260506123002 | 41 | 5 | 0.0 | 0.0 | 0.00 | 0.03 | 0.00 | 77 | 1013.8 |
| 20260506121600 | 40 | 6 | 0.0 | 0.0 | 0.00 | 0.03 | 0.00 | 81 | 1013.6 |
| 20260506120103 | 39 | 6 | 0.0 | 0.0 | 0.00 | 0.03 | 0.00 | 82 | 1013.5 |
| 20260506114557 | 38 | 8 | 0.0 | 0.0 | 0.00 | 0.05 | 0.00 | 86 | 1013.4 |
| 20260506113059 | 37 | 6 | 0.0 | 0.0 | 0.00 | 0.05 | 0.00 | 87 | 1013.2 |
| 20260506111558 | 37 | 6 | 0.0 | 0.0 | 0.00 | 0.05 | 0.00 | 88 | 1013.1 |
| 20260506110053 | 36 | 3 | 0.0 | 0.0 | 0.00 | 0.05 | 0.00 | 87 | 1013.1 |
| 20260506104556 | 36 | 4 | 0.0 | 0.0 | 0.00 | 0.05 | 0.00 | 85 | 1012.9 |
| 20260506103049 | 37 | 2 | 0.0 | 0.0 | 0.00 | 0.05 | 0.00 | 82 | 1012.6 |